AAL1938 KSAN-KSBA

Flight info

Callsign AAL1938
Flight time 0h 37m
Altitude 22000
Route PADRZ2 PADRZ SXC WEEZL KWANG
Aircraft B738/M-SDE2E3FGHIRWXY/LB1

Departure

Time 2026-04-21 06:03
Airport San Diego International Airport (KSAN)

Arrival

Time 2026-04-21 06:40
Airport Santa Barbara Municipal Airport (KSBA)
Time Latitude Longitude Altitude Speed Heading
2026-04-21 05:32 32.73291 -117.20160 24 ft 0 kts 93°
2026-04-21 05:51 32.73291 -117.20164 24 ft 3 kts 93°
2026-04-21 05:51 32.73292 -117.20188 28 ft 3 kts 92°
2026-04-21 05:52 32.73292 -117.20212 28 ft 3 kts 83°
2026-04-21 05:52 32.73288 -117.20227 30 ft 2 kts 50°
2026-04-21 05:52 32.73276 -117.20239 27 ft 3 kts 29°
2026-04-21 05:52 32.73280 -117.20242 28 ft 2 kts 351°
2026-04-21 05:53 32.73294 -117.20249 25 ft 3 kts 335°
2026-04-21 05:53 32.73311 -117.20258 28 ft 3 kts 339°
2026-04-21 05:53 32.73328 -117.20265 23 ft 2 kts 341°
2026-04-21 05:53 32.73339 -117.20269 24 ft 1 kts 344°
2026-04-21 05:54 32.73345 -117.20271 24 ft 1 kts 345°
2026-04-21 05:54 32.73348 -117.20272 25 ft 0 kts 345°
2026-04-21 05:56 32.73406 -117.20273 23 ft 14 kts 13°
2026-04-21 05:56 32.73507 -117.20238 27 ft 15 kts 17°
2026-04-21 05:57 32.73537 -117.20143 28 ft 14 kts 105°
2026-04-21 05:57 32.73511 -117.20033 27 ft 13 kts 106°
2026-04-21 05:57 32.73486 -117.19929 29 ft 13 kts 106°
2026-04-21 05:57 32.73462 -117.19827 27 ft 13 kts 105°
2026-04-21 05:58 32.73437 -117.19728 29 ft 13 kts 106°
2026-04-21 05:58 32.73412 -117.19621 27 ft 14 kts 105°
2026-04-21 05:58 32.73383 -117.19504 29 ft 16 kts 106°
2026-04-21 05:58 32.73350 -117.19366 26 ft 21 kts 106°
2026-04-21 05:59 32.73306 -117.19185 23 ft 23 kts 105°
2026-04-21 05:59 32.73263 -117.19010 26 ft 22 kts 107°
2026-04-21 05:59 32.73221 -117.18839 27 ft 21 kts 107°
2026-04-21 06:00 32.73142 -117.18512 24 ft 20 kts 105°
2026-04-21 06:00 32.73105 -117.18354 23 ft 19 kts 106°
2026-04-21 06:00 32.73068 -117.18203 23 ft 19 kts 106°
2026-04-21 06:00 32.73032 -117.18056 19 ft 18 kts 107°
2026-04-21 06:01 32.72997 -117.17915 19 ft 18 kts 106°
2026-04-21 06:01 32.72963 -117.17779 17 ft 17 kts 106°
2026-04-21 06:01 32.72956 -117.17657 20 ft 15 kts 71°
2026-04-21 06:01 32.73014 -117.17589 21 ft 13 kts 328°
2026-04-21 06:02 32.73050 -117.17710 20 ft 31 kts 285°
2026-04-21 06:02 32.73188 -117.18279 27 ft 110 kts 286°
2026-04-21 06:02 32.73464 -117.19413 92 ft 170 kts 287°
2026-04-21 06:02 32.73820 -117.20885 564 ft 202 kts 287°
2026-04-21 06:03 32.74239 -117.22584 1116 ft 224 kts 287°
2026-04-21 06:03 32.74706 -117.24395 1976 ft 231 kts 293°
2026-04-21 06:03 32.75732 -117.25851 2835 ft 234 kts 324°
2026-04-21 06:03 32.76984 -117.27092 3538 ft 237 kts 311°
2026-04-21 06:04 32.78028 -117.28635 4046 ft 241 kts 306°
2026-04-21 06:04 32.79035 -117.30310 4406 ft 259 kts 304°
2026-04-21 06:04 32.80082 -117.32090 5024 ft 265 kts 305°
2026-04-21 06:04 32.81201 -117.33853 5713 ft 269 kts 306°
2026-04-21 06:05 32.82360 -117.35632 6360 ft 275 kts 306°
2026-04-21 06:05 32.83544 -117.37445 6972 ft 280 kts 306°
2026-04-21 06:05 32.84740 -117.39283 7606 ft 283 kts 306°
2026-04-21 06:05 32.85951 -117.41150 8246 ft 287 kts 305°
2026-04-21 06:06 32.87163 -117.43022 8865 ft 290 kts 305°
2026-04-21 06:06 32.88402 -117.44942 9492 ft 295 kts 304°
2026-04-21 06:06 32.89660 -117.46894 9967 ft 299 kts 304°
2026-04-21 06:06 32.90931 -117.48870 9956 ft 301 kts 304°
2026-04-21 06:07 32.92200 -117.50842 9977 ft 299 kts 304°
2026-04-21 06:07 32.93463 -117.52806 9984 ft 299 kts 304°
2026-04-21 06:07 32.94731 -117.54780 9988 ft 299 kts 304°
2026-04-21 06:07 32.95995 -117.56750 9982 ft 300 kts 304°
2026-04-21 06:08 32.97264 -117.58728 9986 ft 300 kts 304°
2026-04-21 06:08 32.98531 -117.60705 9980 ft 300 kts 304°
2026-04-21 06:08 32.99799 -117.62685 9980 ft 300 kts 304°
2026-04-21 06:08 33.01070 -117.64670 9980 ft 301 kts 304°
2026-04-21 06:09 33.02337 -117.66649 9973 ft 301 kts 304°
2026-04-21 06:09 33.03603 -117.68628 9974 ft 301 kts 304°
2026-04-21 06:09 33.04855 -117.70586 9973 ft 300 kts 304°
2026-04-21 06:09 33.06124 -117.72567 9977 ft 300 kts 305°
2026-04-21 06:10 33.07539 -117.74407 9977 ft 301 kts 310°
2026-04-21 06:10 33.08822 -117.76366 9985 ft 298 kts 300°
2026-04-21 06:10 33.09936 -117.78454 9973 ft 297 kts 298°
2026-04-21 06:10 33.11022 -117.80555 9970 ft 298 kts 298°
2026-04-21 06:11 33.12120 -117.82648 9974 ft 298 kts 298°
2026-04-21 06:11 33.13234 -117.84729 9974 ft 298 kts 299°
2026-04-21 06:11 33.14361 -117.86802 9973 ft 298 kts 300°
2026-04-21 06:11 33.15498 -117.88869 9972 ft 298 kts 300°
2026-04-21 06:12 33.16642 -117.90933 9976 ft 298 kts 300°
2026-04-21 06:12 33.17790 -117.92996 9976 ft 298 kts 300°
2026-04-21 06:12 33.18926 -117.95033 9976 ft 298 kts 300°
2026-04-21 06:12 33.20076 -117.97092 9982 ft 298 kts 300°
2026-04-21 06:13 33.21228 -117.99155 9981 ft 298 kts 300°
2026-04-21 06:13 33.22380 -118.01216 9974 ft 298 kts 300°
2026-04-21 06:13 33.23532 -118.03277 9972 ft 298 kts 300°
2026-04-21 06:13 33.24682 -118.05336 9977 ft 298 kts 300°
2026-04-21 06:14 33.25835 -118.07401 9977 ft 298 kts 300°
2026-04-21 06:14 33.26986 -118.09464 9977 ft 298 kts 300°
2026-04-21 06:14 33.28137 -118.11528 9981 ft 298 kts 300°
2026-04-21 06:14 33.29285 -118.13588 9980 ft 298 kts 300°
2026-04-21 06:15 33.30437 -118.15655 9983 ft 298 kts 300°
2026-04-21 06:15 33.31572 -118.17694 9984 ft 298 kts 300°
2026-04-21 06:15 33.32720 -118.19757 9989 ft 298 kts 300°
2026-04-21 06:15 33.33871 -118.21825 9991 ft 298 kts 300°
2026-04-21 06:16 33.34904 -118.23958 9985 ft 294 kts 288°
2026-04-21 06:16 33.35497 -118.26271 9996 ft 288 kts 276°
2026-04-21 06:16 33.35790 -118.28638 10006 ft 287 kts 274°
2026-04-21 06:16 33.36080 -118.31000 10003 ft 288 kts 274°
2026-04-21 06:17 33.36382 -118.33369 10001 ft 288 kts 274°
2026-04-21 06:17 33.36688 -118.35737 9995 ft 288 kts 275°
2026-04-21 06:17 33.36995 -118.38107 9995 ft 288 kts 275°
2026-04-21 06:17 33.37344 -118.40465 10003 ft 290 kts 281°
2026-04-21 06:18 33.38115 -118.42710 10000 ft 295 kts 296°
2026-04-21 06:18 33.39309 -118.44690 10008 ft 299 kts 306°
2026-04-21 06:18 33.40659 -118.46592 10009 ft 299 kts 306°
2026-04-21 06:18 33.42013 -118.48491 10002 ft 300 kts 306°
2026-04-21 06:19 33.43373 -118.50403 10004 ft 301 kts 306°
2026-04-21 06:19 33.44726 -118.52312 10001 ft 301 kts 306°
2026-04-21 06:19 33.46076 -118.54223 9990 ft 300 kts 306°
2026-04-21 06:19 33.47422 -118.56134 9981 ft 298 kts 306°
2026-04-21 06:20 33.48741 -118.58010 9996 ft 297 kts 306°
2026-04-21 06:20 33.50074 -118.59910 9989 ft 298 kts 306°
2026-04-21 06:20 33.51407 -118.61813 9989 ft 298 kts 306°
2026-04-21 06:20 33.52745 -118.63724 9989 ft 299 kts 306°
2026-04-21 06:21 33.54082 -118.65635 9985 ft 299 kts 306°
2026-04-21 06:21 33.55419 -118.67548 9984 ft 300 kts 306°
2026-04-21 06:21 33.56762 -118.69470 9979 ft 300 kts 306°
2026-04-21 06:21 33.58104 -118.71392 9980 ft 301 kts 306°
2026-04-21 06:22 33.59447 -118.73316 9972 ft 301 kts 305°
2026-04-21 06:22 33.60774 -118.75219 9970 ft 301 kts 306°
2026-04-21 06:22 33.62132 -118.77166 9967 ft 301 kts 305°
2026-04-21 06:22 33.63458 -118.79070 9968 ft 300 kts 305°
2026-04-21 06:23 33.64799 -118.80995 9967 ft 300 kts 305°
2026-04-21 06:23 33.66145 -118.82929 9969 ft 300 kts 305°
2026-04-21 06:23 33.67483 -118.84853 9969 ft 300 kts 305°
2026-04-21 06:23 33.68819 -118.86774 9973 ft 300 kts 305°
2026-04-21 06:24 33.70157 -118.88699 9972 ft 300 kts 305°
2026-04-21 06:24 33.71492 -118.90622 9965 ft 300 kts 305°
2026-04-21 06:24 33.72829 -118.92550 9966 ft 300 kts 305°
2026-04-21 06:24 33.74162 -118.94470 9971 ft 299 kts 305°
2026-04-21 06:25 33.75494 -118.96390 9970 ft 299 kts 305°
2026-04-21 06:25 33.76812 -118.98292 9976 ft 299 kts 305°
2026-04-21 06:25 33.78143 -119.00214 9965 ft 299 kts 305°
2026-04-21 06:25 33.79539 -119.02085 9961 ft 302 kts 313°
2026-04-21 06:26 33.81169 -119.03703 9980 ft 304 kts 318°
2026-04-21 06:26 33.82839 -119.05264 9970 ft 304 kts 318°
2026-04-21 06:26 33.84509 -119.06827 9969 ft 304 kts 317°
2026-04-21 06:26 33.86177 -119.08396 9974 ft 305 kts 317°
2026-04-21 06:27 33.87280 -119.09439 9968 ft 305 kts 317°
2026-04-21 06:27 33.88950 -119.11024 9969 ft 305 kts 317°
2026-04-21 06:27 33.90612 -119.12606 9973 ft 305 kts 317°
2026-04-21 06:27 33.92278 -119.14196 9971 ft 305 kts 317°
2026-04-21 06:28 33.93928 -119.15772 9960 ft 299 kts 317°
2026-04-21 06:28 33.95540 -119.17313 9957 ft 293 kts 317°
2026-04-21 06:28 33.97134 -119.18838 9965 ft 292 kts 317°
2026-04-21 06:28 33.98724 -119.20364 9983 ft 293 kts 317°
2026-04-21 06:29 34.00328 -119.21906 9788 ft 297 kts 317°
2026-04-21 06:29 34.01943 -119.23458 9587 ft 297 kts 317°
2026-04-21 06:29 34.03559 -119.25011 9249 ft 295 kts 317°
2026-04-21 06:29 34.05165 -119.26553 8955 ft 295 kts 317°
2026-04-21 06:30 34.06766 -119.28093 8623 ft 293 kts 317°
2026-04-21 06:30 34.08346 -119.29611 8333 ft 286 kts 317°
2026-04-21 06:30 34.09891 -119.31097 8003 ft 282 kts 317°
2026-04-21 06:30 34.11397 -119.32547 7638 ft 279 kts 317°
2026-04-21 06:31 34.12900 -119.33995 7258 ft 273 kts 317°
2026-04-21 06:31 34.14376 -119.35418 6930 ft 270 kts 318°
2026-04-21 06:31 34.15829 -119.36820 6639 ft 265 kts 318°
2026-04-21 06:31 34.17261 -119.38201 6339 ft 261 kts 318°
2026-04-21 06:32 34.18669 -119.39562 6030 ft 258 kts 318°
2026-04-21 06:32 34.20066 -119.40912 5728 ft 256 kts 319°
2026-04-21 06:32 34.21449 -119.42250 5420 ft 254 kts 319°
2026-04-21 06:32 34.22813 -119.43569 5134 ft 253 kts 319°
2026-04-21 06:33 34.24182 -119.44893 4839 ft 252 kts 320°
2026-04-21 06:33 34.25548 -119.46215 4534 ft 251 kts 320°
2026-04-21 06:33 34.26908 -119.47531 4230 ft 250 kts 320°
2026-04-21 06:33 34.28260 -119.48839 3929 ft 249 kts 321°
2026-04-21 06:34 34.29606 -119.50143 3630 ft 247 kts 321°
2026-04-21 06:34 34.30893 -119.51515 3316 ft 246 kts 308°
2026-04-21 06:34 34.31660 -119.53343 3037 ft 243 kts 290°
2026-04-21 06:34 34.32283 -119.55236 2726 ft 241 kts 292°
2026-04-21 06:35 34.32938 -119.57090 2446 ft 237 kts 293°
2026-04-21 06:35 34.33582 -119.58893 2339 ft 232 kts 293°
2026-04-21 06:35 34.34223 -119.60686 2196 ft 232 kts 293°
2026-04-21 06:35 34.34858 -119.62466 2097 ft 225 kts 293°
2026-04-21 06:36 34.35457 -119.64143 1951 ft 215 kts 293°
2026-04-21 06:36 34.36011 -119.65779 1803 ft 205 kts 290°
2026-04-21 06:36 34.36538 -119.67377 1717 ft 204 kts 293°
2026-04-21 06:36 34.37110 -119.68919 1693 ft 196 kts 294°
2026-04-21 06:37 34.37655 -119.70399 1702 ft 188 kts 294°
2026-04-21 06:37 34.38170 -119.71816 1677 ft 180 kts 293°
2026-04-21 06:37 34.38675 -119.73219 1483 ft 181 kts 293°
2026-04-21 06:37 34.39169 -119.74557 1241 ft 168 kts 296°
2026-04-21 06:38 34.39652 -119.75747 1054 ft 149 kts 297°
2026-04-21 06:38 34.40091 -119.76811 1079 ft 138 kts 297°
2026-04-21 06:38 34.40554 -119.77796 910 ft 139 kts 302°
2026-04-21 06:38 34.41058 -119.78801 818 ft 138 kts 302°
2026-04-21 06:39 34.41572 -119.79791 669 ft 138 kts 303°
2026-04-21 06:39 34.42088 -119.80785 458 ft 141 kts 303°
2026-04-21 06:39 34.42573 -119.81807 301 ft 139 kts 296°
2026-04-21 06:39 34.42782 -119.82929 126 ft 138 kts 276°
2026-04-21 06:40 34.42776 -119.84067 19 ft 123 kts 270°
2026-04-21 06:40 34.42763 -119.84888 17 ft 64 kts 268°
2026-04-21 06:40 34.42734 -119.85167 16 ft 24 kts 225°
2026-04-21 06:40 34.42644 -119.85089 17 ft 20 kts 89°
2026-04-21 06:41 34.42648 -119.84940 17 ft 17 kts 89°
2026-04-21 06:41 34.42650 -119.84802 17 ft 16 kts 89°
2026-04-21 06:41 34.42653 -119.84668 17 ft 16 kts 88°
2026-04-21 06:41 34.42656 -119.84539 17 ft 15 kts 88°
2026-04-21 06:42 34.42658 -119.84417 17 ft 14 kts 89°
2026-04-21 06:42 34.42660 -119.84300 17 ft 14 kts 89°
2026-04-21 06:42 34.42663 -119.84188 17 ft 13 kts 88°
2026-04-21 06:42 34.42666 -119.84080 18 ft 13 kts 88°
2026-04-21 06:43 34.42668 -119.83974 19 ft 12 kts 89°
2026-04-21 06:43 34.42670 -119.83873 19 ft 12 kts 91°
2026-04-21 06:43 34.42610 -119.83816 17 ft 12 kts 165°
2026-04-21 06:43 34.42526 -119.83791 18 ft 12 kts 167°
2026-04-21 06:44 34.42445 -119.83766 18 ft 12 kts 165°
2026-04-21 06:44 34.42396 -119.83726 17 ft 7 kts 98°
2026-04-21 06:44 34.42400 -119.83695 17 ft 3 kts 75°
2026-04-21 06:44 34.42401 -119.83691 17 ft 0 kts 75°